Time,TemperatureF,DewpointF,PressureIn,WindDirection,WindDirectionDegrees,WindSpeedMPH,WindSpeedGustMPH,Humidity,HourlyPrecipIn,Conditions,Clouds,dailyrainin,SoftwareType,DateUTC
2013-06-17 00:00:00,55.0,30.8,30.16,North,5,0.0,0.0,40,0.00,,---,0.00,VWS V14.00,2013-06-17 07:00:00,
2013-06-17 00:10:00,57.4,31.7,30.16,North,5,0.0,0.0,38,0.00,,---,0.00,VWS V14.00,2013-06-17 07:10:00,
2013-06-17 00:20:00,58.3,31.1,30.16,North,360,0.0,0.0,36,0.00,,---,0.00,VWS V14.00,2013-06-17 07:20:00,
2013-06-17 00:25:00,57.4,31.0,30.16,North,360,0.0,0.0,36,0.00,,---,0.00,VWS V14.00,2013-06-17 07:25:00,
2013-06-17 00:30:00,57.3,30.9,30.15,North,5,0.0,0.0,36,0.00,,---,0.00,VWS V14.00,2013-06-17 07:30:00,
2013-06-17 00:35:00,57.0,30.7,30.15,North,5,0.0,0.0,36,0.00,,---,0.00,VWS V14.00,2013-06-17 07:35:00,
2013-06-17 00:40:00,56.4,30.8,30.15,North,5,0.0,0.0,38,0.00,,---,0.00,VWS V14.00,2013-06-17 07:40:00,
2013-06-17 00:45:00,56.1,30.5,30.15,North,360,0.0,0.0,38,0.00,,---,0.00,VWS V14.00,2013-06-17 07:45:00,
2013-06-17 00:50:00,54.2,29.5,30.15,North,5,0.0,0.0,38,0.00,,---,0.00,VWS V14.00,2013-06-17 07:50:00,
2013-06-17 00:55:00,53.8,29.8,30.15,North,5,0.0,0.0,40,0.00,,---,0.00,VWS V14.00,2013-06-17 07:55:00,
2013-06-17 01:00:00,54.3,29.6,30.15,North,5,0.0,0.0,38,0.00,,---,0.00,VWS V14.00,2013-06-17 08:00:00,
2013-06-17 01:05:00,53.6,29.0,30.15,North,5,0.0,0.0,38,0.00,,---,0.00,VWS V14.00,2013-06-17 08:05:00,
2013-06-17 01:15:00,54.2,28.8,30.16,North,5,0.0,0.0,38,0.00,,---,0.00,VWS V14.00,2013-06-17 08:15:00,
2013-06-17 01:20:00,54.2,28.8,30.16,North,5,0.0,0.0,38,0.00,,---,0.00,VWS V14.00,2013-06-17 08:20:00,
2013-06-17 01:25:00,55.1,29.6,30.16,North,5,0.0,0.0,38,0.00,,---,0.00,VWS V14.00,2013-06-17 08:25:00,
2013-06-17 01:35:00,53.3,28.0,30.16,North,360,0.0,0.0,38,0.00,,---,0.00,VWS V14.00,2013-06-17 08:35:00,
2013-06-17 01:40:00,53.4,28.1,30.16,North,5,0.0,0.0,38,0.00,,---,0.00,VWS V14.00,2013-06-17 08:40:00,
2013-06-17 01:45:00,52.7,26.9,30.16,North,5,0.0,0.0,36,0.00,,---,0.00,VWS V14.00,2013-06-17 08:45:00,
2013-06-17 01:50:00,52.2,26.4,30.16,North,5,0.0,0.0,36,0.00,,---,0.00,VWS V14.00,2013-06-17 08:50:00,
2013-06-17 02:00:00,53.1,27.9,30.16,North,5,0.0,0.0,38,0.00,,---,0.00,VWS V14.00,2013-06-17 09:00:00,
2013-06-17 02:10:00,53.1,27.2,30.16,North,360,0.0,0.0,36,0.00,,---,0.00,VWS V14.00,2013-06-17 09:10:00,
2013-06-17 02:15:00,53.3,26.7,30.15,North,5,0.0,0.0,36,0.00,,---,0.00,VWS V14.00,2013-06-17 09:15:00,
2013-06-17 02:20:00,53.9,27.2,30.16,North,5,0.0,0.0,36,0.00,,---,0.00,VWS V14.00,2013-06-17 09:20:00,
2013-06-17 02:30:00,54.3,27.6,30.15,North,360,0.0,0.0,36,0.00,,---,0.00,VWS V14.00,2013-06-17 09:30:00,
2013-06-17 02:35:00,54.0,26.6,30.15,North,5,0.0,0.0,34,0.00,,---,0.00,VWS V14.00,2013-06-17 09:35:00,
2013-06-17 02:45:00,52.6,26.1,30.15,North,5,0.0,0.0,36,0.00,,---,0.00,VWS V14.00,2013-06-17 09:45:00,
2013-06-17 02:55:00,52.5,24.6,30.15,North,360,0.0,0.0,34,0.00,,---,0.00,VWS V14.00,2013-06-17 09:55:00,
2013-06-17 03:00:00,52.8,24.9,30.15,North,5,0.0,0.0,34,0.00,,---,0.00,VWS V14.00,2013-06-17 10:00:00,
2013-06-17 03:10:00,53.0,25.0,30.15,North,5,0.0,0.0,34,0.00,,---,0.00,VWS V14.00,2013-06-17 10:10:00,
2013-06-17 03:20:00,53.3,26.0,30.15,North,5,0.0,0.0,34,0.00,,---,0.00,VWS V14.00,2013-06-17 10:20:00,
2013-06-17 03:25:00,52.9,25.7,30.15,North,5,0.0,0.0,34,0.00,,---,0.00,VWS V14.00,2013-06-17 10:25:00,
2013-06-17 03:35:00,53.0,26.4,30.15,North,5,0.0,0.0,36,0.00,,---,0.00,VWS V14.00,2013-06-17 10:35:00,
2013-06-17 03:40:00,51.7,25.3,30.15,North,5,0.0,0.0,36,0.00,,---,0.00,VWS V14.00,2013-06-17 10:40:00,
2013-06-17 03:45:00,51.0,26.0,30.15,North,360,0.0,0.0,38,0.00,,---,0.00,VWS V14.00,2013-06-17 10:45:00,
2013-06-17 03:50:00,50.2,25.9,30.15,North,5,0.0,0.0,38,0.00,,---,0.00,VWS V14.00,2013-06-17 10:50:00,
2013-06-17 04:00:00,49.8,26.2,30.15,North,5,0.0,0.0,40,0.00,,---,0.00,VWS V14.00,2013-06-17 11:00:00,
2013-06-17 04:05:00,50.5,26.2,30.15,North,5,0.0,0.0,38,0.00,,---,0.00,VWS V14.00,2013-06-17 11:05:00,
2013-06-17 04:10:00,51.1,26.1,30.15,North,5,0.0,0.0,38,0.00,,---,0.00,VWS V14.00,2013-06-17 11:10:00,
2013-06-17 04:20:00,50.4,25.5,30.15,North,360,0.0,0.0,38,0.00,,---,0.00,VWS V14.00,2013-06-17 11:20:00,
2013-06-17 04:25:00,50.3,25.4,30.15,North,360,0.0,0.0,38,0.00,,---,0.00,VWS V14.00,2013-06-17 11:25:00,
2013-06-17 04:35:00,51.9,26.8,30.15,North,5,0.0,0.0,38,0.00,,---,0.00,VWS V14.00,2013-06-17 11:35:00,
2013-06-17 04:40:00,52.1,27.6,30.14,North,5,0.0,0.0,38,0.00,,---,0.00,VWS V14.00,2013-06-17 11:40:00,
2013-06-17 04:50:00,50.5,26.2,30.15,North,5,0.0,0.0,38,0.00,,---,0.00,VWS V14.00,2013-06-17 11:50:00,
2013-06-17 04:55:00,49.8,25.5,30.15,North,360,0.0,0.0,38,0.00,,---,0.00,VWS V14.00,2013-06-17 11:55:00,
2013-06-17 05:00:00,48.7,24.6,30.14,North,5,0.0,0.0,38,0.00,,---,0.00,VWS V14.00,2013-06-17 12:00:00,
2013-06-17 05:05:00,48.6,25.7,30.14,North,5,0.0,0.0,40,0.00,,---,0.00,VWS V14.00,2013-06-17 12:05:00,
2013-06-17 05:10:00,48.1,24.6,30.14,North,5,0.0,0.0,40,0.00,,---,0.00,VWS V14.00,2013-06-17 12:10:00,
2013-06-17 05:20:00,48.1,24.6,30.15,North,360,0.0,0.0,40,0.00,,---,0.00,VWS V14.00,2013-06-17 12:20:00,
2013-06-17 05:25:00,48.2,24.7,30.14,North,5,0.0,0.0,40,0.00,,---,0.00,VWS V14.00,2013-06-17 12:25:00,
2013-06-17 05:30:00,48.1,24.0,30.14,North,5,0.0,0.0,38,0.00,,---,0.00,VWS V14.00,2013-06-17 12:30:00,
2013-06-17 05:35:00,47.5,23.5,30.15,North,5,0.0,0.0,38,0.00,,---,0.00,VWS V14.00,2013-06-17 12:35:00,
2013-06-17 05:45:00,47.2,23.8,30.14,North,360,0.0,0.0,40,0.00,,---,0.00,VWS V14.00,2013-06-17 12:45:00,
2013-06-17 05:50:00,47.8,24.4,30.15,North,5,0.0,0.0,40,0.00,,---,0.00,VWS V14.00,2013-06-17 12:50:00,
2013-06-17 05:55:00,48.5,24.4,30.14,North,360,0.0,0.0,38,0.00,,---,0.00,VWS V14.00,2013-06-17 12:55:00,
2013-06-17 06:00:00,49.4,24.6,30.15,North,360,0.0,0.0,38,0.00,,---,0.00,VWS V14.00,2013-06-17 13:00:00,
2013-06-17 06:05:00,50.2,25.3,30.15,North,5,0.0,0.0,38,0.00,,---,0.00,VWS V14.00,2013-06-17 13:05:00,
2013-06-17 06:10:00,50.9,25.2,30.15,North,5,0.0,0.0,36,0.00,,---,0.00,VWS V14.00,2013-06-17 13:10:00,
2013-06-17 06:20:00,52.3,26.5,30.15,North,5,0.0,0.0,36,0.00,,---,0.00,VWS V14.00,2013-06-17 13:20:00,
2013-06-17 06:25:00,52.7,26.9,30.15,North,5,0.0,0.0,36,0.00,,---,0.00,VWS V14.00,2013-06-17 13:25:00,
2013-06-17 06:30:00,53.0,27.1,30.15,North,360,0.0,0.0,36,0.00,,---,0.00,VWS V14.00,2013-06-17 13:30:00,
2013-06-17 06:35:00,53.2,27.3,30.15,North,360,0.0,0.0,36,0.00,,---,0.00,VWS V14.00,2013-06-17 13:35:00,
2013-06-17 06:40:00,53.7,27.1,30.15,North,5,0.0,0.0,36,0.00,,---,0.00,VWS V14.00,2013-06-17 13:40:00,
2013-06-17 06:45:00,54.4,27.7,30.15,North,5,0.0,0.0,36,0.00,,---,0.00,VWS V14.00,2013-06-17 13:45:00,
2013-06-17 06:50:00,54.8,28.0,30.15,North,360,0.0,0.0,36,0.00,,---,0.00,VWS V14.00,2013-06-17 13:50:00,
2013-06-17 06:55:00,55.3,27.8,30.15,North,5,0.0,0.0,34,0.00,,---,0.00,VWS V14.00,2013-06-17 13:55:00,
2013-06-17 07:00:00,55.7,28.1,30.15,North,5,0.0,0.0,34,0.00,,---,0.00,VWS V14.00,2013-06-17 14:00:00,
2013-06-17 07:05:00,55.2,27.7,30.15,North,360,0.0,0.0,34,0.00,,---,0.00,VWS V14.00,2013-06-17 14:05:00,
2013-06-17 07:10:00,54.9,28.1,30.15,North,360,0.0,0.0,36,0.00,,---,0.00,VWS V14.00,2013-06-17 14:10:00,
2013-06-17 07:15:00,55.0,28.2,30.15,North,5,0.0,0.0,36,0.00,,---,0.00,VWS V14.00,2013-06-17 14:15:00,
2013-06-17 07:20:00,55.2,28.4,30.15,North,5,0.0,0.0,36,0.00,,---,0.00,VWS V14.00,2013-06-17 14:20:00,
2013-06-17 07:25:00,55.4,28.6,30.15,North,5,0.0,0.0,36,0.00,,---,0.00,VWS V14.00,2013-06-17 14:25:00,
2013-06-17 07:30:00,55.5,28.7,30.15,North,5,0.0,0.0,36,0.00,,---,0.00,VWS V14.00,2013-06-17 14:30:00,
2013-06-17 07:35:00,55.8,28.2,30.15,North,5,0.0,0.0,34,0.00,,---,0.00,VWS V14.00,2013-06-17 14:35:00,
2013-06-17 07:40:00,56.2,28.6,30.15,North,5,0.0,0.0,34,0.00,,---,0.00,VWS V14.00,2013-06-17 14:40:00,
2013-06-17 07:45:00,56.7,28.3,30.15,North,5,0.0,0.0,34,0.00,,---,0.00,VWS V14.00,2013-06-17 14:45:00,
2013-06-17 07:50:00,57.8,28.5,30.15,North,5,0.0,0.0,32,0.00,,---,0.00,VWS V14.00,2013-06-17 14:50:00,
2013-06-17 07:55:00,59.0,28.8,30.15,North,5,0.0,0.0,32,0.00,,---,0.00,VWS V14.00,2013-06-17 14:55:00,
2013-06-17 08:00:00,60.4,28.4,30.15,North,5,0.0,0.0,30,0.00,,---,0.00,VWS V14.00,2013-06-17 15:00:00,
2013-06-17 08:05:00,60.6,29.4,30.15,North,5,4.0,5.0,30,0.00,,---,0.00,VWS V14.00,2013-06-17 15:05:00,
2013-06-17 08:10:00,59.7,28.6,30.15,North,360,3.0,6.0,30,0.00,,---,0.00,VWS V14.00,2013-06-17 15:10:00,
2013-06-17 08:15:00,59.4,29.2,30.15,North,5,2.0,5.0,32,0.00,,---,0.00,VWS V14.00,2013-06-17 15:15:00,
2013-06-17 08:20:00,59.6,29.3,30.15,North,360,1.0,5.0,32,0.00,,---,0.00,VWS V14.00,2013-06-17 15:20:00,
2013-06-17 08:25:00,59.9,30.4,30.15,North,360,3.0,4.0,32,0.00,,---,0.00,VWS V14.00,2013-06-17 15:25:00,
2013-06-17 08:35:00,60.9,28.9,30.15,North,5,1.0,5.0,30,0.00,,---,0.00,VWS V14.00,2013-06-17 15:35:00,
2013-06-17 08:40:00,61.1,29.9,30.15,North,5,4.0,5.0,30,0.00,,---,0.00,VWS V14.00,2013-06-17 15:40:00,
2013-06-17 08:45:00,61.3,29.2,30.15,North,360,2.0,5.0,30,0.00,,---,0.00,VWS V14.00,2013-06-17 15:45:00,
2013-06-17 08:50:00,61.8,28.8,30.14,North,5,1.0,5.0,28,0.00,,---,0.00,VWS V14.00,2013-06-17 15:50:00,
2013-06-17 08:55:00,62.4,29.3,30.14,North,5,0.0,4.0,28,0.00,,---,0.00,VWS V14.00,2013-06-17 15:55:00,
2013-06-17 09:00:00,63.2,29.1,30.14,North,5,0.0,0.0,28,0.00,,---,0.00,VWS V14.00,2013-06-17 16:00:00,
2013-06-17 09:05:00,64.3,29.2,30.14,North,5,3.0,5.0,26,0.00,,---,0.00,VWS V14.00,2013-06-17 16:05:00,
2013-06-17 09:10:00,64.9,28.8,30.14,North,5,0.0,4.0,26,0.00,,---,0.00,VWS V14.00,2013-06-17 16:10:00,
2013-06-17 09:15:00,65.6,29.3,30.14,North,5,2.0,5.0,26,0.00,,---,0.00,VWS V14.00,2013-06-17 16:15:00,
2013-06-17 09:20:00,65.9,27.6,30.14,North,360,0.0,5.0,24,0.00,,---,0.00,VWS V14.00,2013-06-17 16:20:00,
2013-06-17 09:25:00,66.5,29.1,30.14,North,5,5.0,6.0,24,0.00,,---,0.00,VWS V14.00,2013-06-17 16:25:00,
2013-06-17 09:35:00,66.6,30.2,30.14,North,5,7.0,8.0,26,0.00,,---,0.00,VWS V14.00,2013-06-17 16:35:00,
2013-06-17 09:40:00,66.4,31.9,30.14,North,360,6.0,9.0,28,0.00,,---,0.00,VWS V14.00,2013-06-17 16:40:00,
2013-06-17 09:45:00,66.2,29.9,30.13,North,5,2.0,7.0,26,0.00,,---,0.00,VWS V14.00,2013-06-17 16:45:00,
2013-06-17 09:50:00,66.5,30.1,30.13,North,5,1.0,7.0,26,0.00,,---,0.00,VWS V14.00,2013-06-17 16:50:00,
2013-06-17 09:55:00,67.1,31.6,30.13,North,5,7.0,10.0,26,0.00,,---,0.00,VWS V14.00,2013-06-17 16:55:00,
2013-06-17 10:00:00,67.4,33.6,30.13,North,360,7.0,9.0,28,0.00,,---,0.00,VWS V14.00,2013-06-17 17:00:00,
2013-06-17 10:05:00,67.4,31.8,30.13,North,360,6.0,8.0,26,0.00,,---,0.00,VWS V14.00,2013-06-17 17:05:00,
2013-06-17 10:10:00,67.9,32.2,30.13,North,360,1.0,8.0,26,0.00,,---,0.00,VWS V14.00,2013-06-17 17:10:00,
2013-06-17 10:15:00,68.9,30.1,30.13,North,360,2.0,5.0,24,0.00,,---,0.00,VWS V14.00,2013-06-17 17:15:00,
2013-06-17 10:20:00,70.0,28.9,30.12,North,360,1.0,5.0,22,0.00,,---,0.00,VWS V14.00,2013-06-17 17:20:00,
2013-06-17 10:25:00,70.7,27.1,30.12,North,360,4.0,5.0,20,0.00,,---,0.00,VWS V14.00,2013-06-17 17:25:00,
2013-06-17 10:30:00,71.6,26.5,30.12,North,360,5.0,7.0,18,0.00,,---,0.00,VWS V14.00,2013-06-17 17:30:00,
2013-06-17 10:35:00,72.4,25.9,30.12,North,360,3.0,6.0,18,0.00,,---,0.00,VWS V14.00,2013-06-17 17:35:00,
2013-06-17 10:40:00,72.6,24.6,30.12,North,360,5.0,6.0,16,0.00,,---,0.00,VWS V14.00,2013-06-17 17:40:00,
2013-06-17 10:45:00,72.9,26.3,30.12,North,360,5.0,7.0,18,0.00,,---,0.00,VWS V14.00,2013-06-17 17:45:00,
2013-06-17 10:50:00,73.0,23.4,30.12,North,360,7.0,9.0,16,0.00,,---,0.00,VWS V14.00,2013-06-17 17:50:00,
2013-06-17 10:55:00,73.2,23.6,30.12,North,360,5.0,9.0,16,0.00,,---,0.00,VWS V14.00,2013-06-17 17:55:00,
2013-06-17 11:00:00,73.5,23.8,30.12,North,360,7.0,9.0,16,0.00,,---,0.00,VWS V14.00,2013-06-17 18:00:00,
2013-06-17 11:05:00,74.1,24.3,30.12,NNW,342,7.0,11.0,16,0.00,,---,0.00,VWS V14.00,2013-06-17 18:05:00,
2013-06-17 11:10:00,74.1,24.3,30.12,NNW,331,0.0,14.0,16,0.00,,---,0.00,VWS V14.00,2013-06-17 18:10:00,
2013-06-17 11:15:00,74.8,24.9,30.11,NNW,332,5.0,9.0,16,0.00,,---,0.00,VWS V14.00,2013-06-17 18:15:00,
2013-06-17 11:20:00,75.4,23.8,30.11,NNW,336,9.0,12.0,14,0.00,,---,0.00,VWS V14.00,2013-06-17 18:20:00,
2013-06-17 11:25:00,75.6,25.5,30.11,NNW,341,0.0,11.0,16,0.00,,---,0.00,VWS V14.00,2013-06-17 18:25:00,
2013-06-17 11:30:00,76.4,24.6,30.11,NNW,333,5.0,5.0,14,0.00,,---,0.00,VWS V14.00,2013-06-17 18:30:00,
2013-06-17 11:35:00,76.6,23.0,30.11,NNW,331,0.0,8.0,14,0.00,,---,0.00,VWS V14.00,2013-06-17 18:35:00,
2013-06-17 11:40:00,76.6,21.2,30.11,NNW,334,0.0,10.0,12,0.00,,---,0.00,VWS V14.00,2013-06-17 18:40:00,
2013-06-17 11:45:00,76.3,24.5,30.11,NW,326,6.0,12.0,14,0.00,,---,0.00,VWS V14.00,2013-06-17 18:45:00,
2013-06-17 11:50:00,76.0,24.2,30.11,NW,309,3.0,16.0,14,0.00,,---,0.00,VWS V14.00,2013-06-17 18:50:00,
2013-06-17 11:55:00,76.3,27.6,30.11,NW,309,12.0,15.0,16,0.00,,---,0.00,VWS V14.00,2013-06-17 18:55:00,
2013-06-17 12:00:00,76.3,27.6,30.11,NW,305,14.0,14.0,16,0.00,,---,0.00,VWS V14.00,2013-06-17 19:00:00,
2013-06-17 12:10:00,77.0,26.6,30.10,WNW,302,8.0,15.0,16,0.00,,---,0.00,VWS V14.00,2013-06-17 19:10:00,
2013-06-17 12:15:00,76.9,28.1,30.10,WNW,298,10.0,15.0,16,0.00,,---,0.00,VWS V14.00,2013-06-17 19:15:00,
2013-06-17 12:20:00,77.0,28.2,30.10,WNW,294,7.0,13.0,16,0.00,,---,0.00,VWS V14.00,2013-06-17 19:20:00,
2013-06-17 12:25:00,77.3,26.9,30.10,WNW,291,9.0,14.0,16,0.00,,---,0.00,VWS V14.00,2013-06-17 19:25:00,
2013-06-17 12:30:00,77.0,26.6,30.10,WNW,291,2.0,13.0,16,0.00,,---,0.00,VWS V14.00,2013-06-17 19:30:00,
2013-06-17 12:35:00,77.6,28.6,30.10,WNW,291,7.0,13.0,16,0.00,,---,0.00,VWS V14.00,2013-06-17 19:35:00,
2013-06-17 12:40:00,77.3,26.9,30.10,WNW,291,8.0,13.0,16,0.00,,---,0.00,VWS V14.00,2013-06-17 19:40:00,
2013-06-17 12:45:00,77.9,28.9,30.10,WNW,286,10.0,19.0,16,0.00,,---,0.00,VWS V14.00,2013-06-17 19:45:00,
2013-06-17 12:50:00,77.9,25.8,30.10,WNW,286,5.0,13.0,14,0.00,,---,0.00,VWS V14.00,2013-06-17 19:50:00,
2013-06-17 12:55:00,78.1,27.5,30.09,WNW,286,8.0,12.0,16,0.00,,---,0.00,VWS V14.00,2013-06-17 19:55:00,
2013-06-17 13:00:00,78.5,29.4,30.09,WNW,295,9.0,16.0,16,0.00,,---,0.00,VWS V14.00,2013-06-17 20:00:00,
2013-06-17 13:05:00,78.7,28.0,30.09,WNW,296,13.0,18.0,16,0.00,,---,0.00,VWS V14.00,2013-06-17 20:05:00,
2013-06-17 13:10:00,78.4,26.1,30.08,WNW,299,5.0,19.0,14,0.00,,---,0.00,VWS V14.00,2013-06-17 20:10:00,
2013-06-17 13:15:00,79.1,28.3,30.08,WNW,302,9.0,15.0,16,0.00,,---,0.00,VWS V14.00,2013-06-17 20:15:00,
2013-06-17 13:20:00,79.7,28.8,30.08,WNW,296,13.0,20.0,16,0.00,,---,0.00,VWS V14.00,2013-06-17 20:20:00,
2013-06-17 13:25:00,79.1,28.3,30.08,WNW,287,7.0,16.0,16,0.00,,---,0.00,VWS V14.00,2013-06-17 20:25:00,
2013-06-17 13:30:00,78.7,28.0,30.08,WNW,288,5.0,13.0,16,0.00,,---,0.00,VWS V14.00,2013-06-17 20:30:00,
2013-06-17 13:35:00,79.2,28.4,30.08,WNW,284,2.0,12.0,16,0.00,,---,0.00,VWS V14.00,2013-06-17 20:35:00,
2013-06-17 13:40:00,79.9,29.0,30.08,West,272,7.0,18.0,16,0.00,,---,0.00,VWS V14.00,2013-06-17 20:40:00,
2013-06-17 13:45:00,81.1,24.7,30.08,West,267,8.0,15.0,12,0.00,,---,0.00,VWS V14.00,2013-06-17 20:45:00,
2013-06-17 13:50:00,80.5,26.1,30.07,WSW,248,8.0,21.0,14,0.00,,---,0.00,VWS V14.00,2013-06-17 20:50:00,
2013-06-17 13:55:00,82.2,23.6,30.07,WSW,248,9.0,14.0,12,0.00,,---,0.00,VWS V14.00,2013-06-17 20:55:00,
2013-06-17 14:00:00,82.5,23.8,30.07,SSW,199,11.0,25.0,12,0.00,,---,0.00,VWS V14.00,2013-06-17 21:00:00,
2013-06-17 14:05:00,81.8,21.1,30.07,SW,217,9.0,27.0,10,0.00,,---,0.00,VWS V14.00,2013-06-17 21:05:00,
2013-06-17 14:10:00,81.7,21.0,30.07,WSW,240,19.0,25.0,10,0.00,,---,0.00,VWS V14.00,2013-06-17 21:10:00,
2013-06-17 14:15:00,81.8,21.1,30.07,SW,227,9.0,21.0,10,0.00,,---,0.00,VWS V14.00,2013-06-17 21:15:00,
2013-06-17 14:25:00,82.7,21.8,30.06,SW,216,19.0,24.0,10,0.00,,---,0.00,VWS V14.00,2013-06-17 21:25:00,
2013-06-17 14:30:00,82.6,21.7,30.06,SW,218,15.0,22.0,10,0.00,,---,0.00,VWS V14.00,2013-06-17 21:30:00,
2013-06-17 14:35:00,82.5,23.8,30.06,SW,222,11.0,21.0,12,0.00,,---,0.00,VWS V14.00,2013-06-17 21:35:00,
2013-06-17 14:40:00,82.3,23.6,30.07,SSW,203,12.0,25.0,12,0.00,,---,0.00,VWS V14.00,2013-06-17 21:40:00,
2013-06-17 14:50:00,83.8,22.6,30.06,SW,215,15.0,21.0,10,0.00,,---,0.00,VWS V14.00,2013-06-17 21:50:00,
2013-06-17 15:00:00,82.7,24.0,30.06,SW,220,10.0,22.0,12,0.00,,---,0.00,VWS V14.00,2013-06-17 22:00:00,
2013-06-17 15:05:00,82.3,23.6,30.06,SW,219,14.0,26.0,12,0.00,,---,0.00,VWS V14.00,2013-06-17 22:05:00,
2013-06-17 15:10:00,82.3,23.6,30.06,SW,214,15.0,25.0,12,0.00,,---,0.00,VWS V14.00,2013-06-17 22:10:00,
2013-06-17 15:20:00,82.2,23.6,30.06,SW,235,12.0,25.0,12,0.00,,---,0.00,VWS V14.00,2013-06-17 22:20:00,
2013-06-17 15:25:00,82.6,23.9,30.06,SSW,213,21.0,24.0,12,0.00,,---,0.00,VWS V14.00,2013-06-17 22:25:00,
2013-06-17 15:30:00,82.4,23.7,30.06,SSW,196,23.0,26.0,12,0.00,,---,0.00,VWS V14.00,2013-06-17 22:30:00,
2013-06-17 15:35:00,81.8,25.3,30.06,SSW,206,15.0,23.0,12,0.00,,---,0.00,VWS V14.00,2013-06-17 22:35:00,
2013-06-17 15:40:00,81.5,25.0,30.06,SW,229,19.0,24.0,12,0.00,,---,0.00,VWS V14.00,2013-06-17 22:40:00,
2013-06-17 15:50:00,81.6,25.1,30.06,SSW,195,12.0,22.0,12,0.00,,---,0.00,VWS V14.00,2013-06-17 22:50:00,
2013-06-17 15:55:00,81.8,28.9,30.05,WSW,248,19.0,21.0,14,0.00,,---,0.00,VWS V14.00,2013-06-17 22:55:00,
2013-06-17 16:00:00,81.4,28.5,30.05,SW,215,15.0,26.0,14,0.00,,---,0.00,VWS V14.00,2013-06-17 23:00:00,
2013-06-17 16:10:00,80.7,37.8,30.05,West,259,14.0,23.0,22,0.00,,---,0.00,VWS V14.00,2013-06-17 23:10:00,
2013-06-17 16:15:00,79.7,31.8,30.05,SW,229,14.0,33.0,18,0.00,,---,0.00,VWS V14.00,2013-06-17 23:15:00,
2013-06-17 16:20:00,80.5,32.4,30.05,West,264,16.0,25.0,18,0.00,,---,0.00,VWS V14.00,2013-06-17 23:20:00,
2013-06-17 16:30:00,79.9,33.3,30.05,WSW,246,13.0,25.0,18,0.00,,---,0.00,VWS V14.00,2013-06-17 23:30:00,
2013-06-17 16:35:00,79.3,32.8,30.05,WSW,256,22.0,26.0,18,0.00,,---,0.00,VWS V14.00,2013-06-17 23:35:00,
2013-06-17 16:40:00,78.8,32.4,30.05,WSW,249,18.0,27.0,18,0.00,,---,0.00,VWS V14.00,2013-06-17 23:40:00,
2013-06-17 16:45:00,78.7,32.3,30.05,WSW,245,13.0,25.0,18,0.00,,---,0.00,VWS V14.00,2013-06-17 23:45:00,
2013-06-17 16:55:00,78.7,32.3,30.05,West,263,22.0,25.0,18,0.00,,---,0.00,VWS V14.00,2013-06-17 23:55:00,
2013-06-17 17:05:00,78.0,33.1,30.05,WNW,286,13.0,27.0,20,0.00,,---,0.00,VWS V14.00,2013-06-18 00:05:00,
2013-06-17 17:10:00,77.1,33.6,30.05,WSW,253,15.0,23.0,20,0.00,,---,0.00,VWS V14.00,2013-06-18 00:10:00,
2013-06-17 17:15:00,76.9,34.6,30.05,West,264,19.0,25.0,22,0.00,,---,0.00,VWS V14.00,2013-06-18 00:15:00,
2013-06-17 17:25:00,76.9,33.4,30.05,West,269,16.0,21.0,20,0.00,,---,0.00,VWS V14.00,2013-06-18 00:25:00,
2013-06-17 17:30:00,76.6,33.2,30.05,West,267,12.0,22.0,20,0.00,,---,0.00,VWS V14.00,2013-06-18 00:30:00,
2013-06-17 17:40:00,77.6,28.6,30.05,WSW,240,18.0,22.0,16,0.00,,---,0.00,VWS V14.00,2013-06-18 00:40:00,
2013-06-17 17:45:00,77.4,27.0,30.05,SW,236,10.0,21.0,16,0.00,,---,0.00,VWS V14.00,2013-06-18 00:45:00,
2013-06-17 17:55:00,77.3,26.9,30.05,WSW,244,18.0,22.0,16,0.00,,---,0.00,VWS V14.00,2013-06-18 00:55:00,
2013-06-17 18:00:00,77.0,32.3,30.05,West,261,9.0,18.0,20,0.00,,---,0.00,VWS V14.00,2013-06-18 01:00:00,
2013-06-17 18:05:00,76.4,31.8,30.05,West,262,12.0,15.0,20,0.00,,---,0.00,VWS V14.00,2013-06-18 01:05:00,
2013-06-17 18:15:00,75.3,32.1,30.06,West,280,7.0,15.0,20,0.00,,---,0.00,VWS V14.00,2013-06-18 01:15:00,
2013-06-17 18:20:00,75.3,32.1,30.06,WNW,292,13.0,18.0,20,0.00,,---,0.00,VWS V14.00,2013-06-18 01:20:00,
2013-06-17 18:30:00,74.5,31.4,30.06,WNW,288,11.0,16.0,20,0.00,,---,0.00,VWS V14.00,2013-06-18 01:30:00,
2013-06-17 18:35:00,74.6,31.5,30.06,West,260,7.0,15.0,20,0.00,,---,0.00,VWS V14.00,2013-06-18 01:35:00,
2013-06-17 18:40:00,75.4,26.9,30.06,SW,235,10.0,15.0,16,0.00,,---,0.00,VWS V14.00,2013-06-18 01:40:00,
2013-06-17 18:50:00,74.7,31.6,30.06,WSW,258,8.0,12.0,20,0.00,,---,0.00,VWS V14.00,2013-06-18 01:50:00,
2013-06-17 18:55:00,74.6,31.5,30.06,WSW,249,8.0,14.0,20,0.00,,---,0.00,VWS V14.00,2013-06-18 01:55:00,
2013-06-17 19:00:00,73.9,32.1,30.06,WSW,251,7.0,13.0,22,0.00,,---,0.00,VWS V14.00,2013-06-18 02:00:00,
2013-06-17 19:10:00,73.2,32.7,30.06,West,267,6.0,12.0,22,0.00,,---,0.00,VWS V14.00,2013-06-18 02:10:00,
2013-06-17 19:15:00,72.8,32.3,30.06,West,267,7.0,12.0,22,0.00,,---,0.00,VWS V14.00,2013-06-18 02:15:00,
2013-06-17 19:25:00,72.7,32.2,30.06,West,267,5.0,7.0,22,0.00,,---,0.00,VWS V14.00,2013-06-18 02:25:00,
2013-06-17 19:30:00,72.6,33.2,30.06,West,267,10.0,10.0,24,0.00,,---,0.00,VWS V14.00,2013-06-18 02:30:00,
2013-06-17 19:35:00,71.9,32.7,30.06,West,267,6.0,10.0,24,0.00,,---,0.00,VWS V14.00,2013-06-18 02:35:00,
2013-06-17 19:45:00,71.0,33.9,30.06,West,267,7.0,9.0,26,0.00,,---,0.00,VWS V14.00,2013-06-18 02:45:00,
2013-06-17 19:50:00,70.3,34.3,30.06,West,267,5.0,7.0,26,0.00,,---,0.00,VWS V14.00,2013-06-18 02:50:00,
2013-06-17 20:00:00,70.1,33.2,30.06,West,267,1.0,5.0,26,0.00,,---,0.00,VWS V14.00,2013-06-18 03:00:00,
2013-06-17 20:10:00,69.5,30.6,30.06,West,260,6.0,10.0,24,0.00,,---,0.00,VWS V14.00,2013-06-18 03:10:00,
2013-06-17 20:15:00,68.9,30.1,30.06,WSW,258,6.0,11.0,24,0.00,,---,0.00,VWS V14.00,2013-06-18 03:15:00,
2013-06-17 20:20:00,68.4,29.7,30.06,WSW,257,2.0,11.0,24,0.00,,---,0.00,VWS V14.00,2013-06-18 03:20:00,
2013-06-17 20:30:00,67.5,29.0,30.06,WSW,254,6.0,11.0,24,0.00,,---,0.00,VWS V14.00,2013-06-18 03:30:00,
2013-06-17 20:35:00,67.2,28.7,30.06,WSW,242,6.0,13.0,24,0.00,,---,0.00,VWS V14.00,2013-06-18 03:35:00,
2013-06-17 20:40:00,66.8,29.4,30.06,WSW,242,4.0,10.0,24,0.00,,---,0.00,VWS V14.00,2013-06-18 03:40:00,
2013-06-17 20:50:00,65.9,29.6,30.05,WSW,242,5.0,9.0,26,0.00,,---,0.00,VWS V14.00,2013-06-18 03:50:00,
2013-06-17 21:00:00,65.5,29.3,30.06,WSW,242,4.0,10.0,26,0.00,,---,0.00,VWS V14.00,2013-06-18 04:00:00,
2013-06-17 21:05:00,65.3,29.1,30.06,WSW,242,7.0,10.0,26,0.00,,---,0.00,VWS V14.00,2013-06-18 04:05:00,
2013-06-17 21:10:00,65.0,28.8,30.06,WSW,242,7.0,9.0,26,0.00,,---,0.00,VWS V14.00,2013-06-18 04:10:00,
2013-06-17 21:15:00,64.8,27.7,30.05,WSW,242,4.0,8.0,24,0.00,,---,0.00,VWS V14.00,2013-06-18 04:15:00,
2013-06-17 21:20:00,64.3,27.3,30.06,WSW,241,5.0,7.0,24,0.00,,---,0.00,VWS V14.00,2013-06-18 04:20:00,
2013-06-17 21:30:00,63.5,28.5,30.06,WSW,242,0.0,0.0,26,0.00,,---,0.00,VWS V14.00,2013-06-18 04:30:00,
2013-06-17 21:40:00,63.2,28.2,30.06,WSW,242,1.0,2.0,26,0.00,,---,0.00,VWS V14.00,2013-06-18 04:40:00,
2013-06-17 21:45:00,63.0,28.1,30.06,WSW,242,4.0,4.0,26,0.00,,---,0.00,VWS V14.00,2013-06-18 04:45:00,
2013-06-17 21:50:00,63.0,27.1,30.06,WSW,242,8.0,8.0,26,0.00,,---,0.00,VWS V14.00,2013-06-18 04:50:00,
2013-06-17 21:55:00,62.9,27.0,30.06,WSW,241,5.0,8.0,26,0.00,,---,0.00,VWS V14.00,2013-06-18 04:55:00,
2013-06-17 22:00:00,62.8,26.0,30.06,WSW,241,9.0,10.0,24,0.00,,---,0.00,VWS V14.00,2013-06-18 05:00:00,
2013-06-17 22:10:00,63.4,26.5,30.06,SW,225,7.0,16.0,24,0.00,,---,0.00,VWS V14.00,2013-06-18 05:10:00,
2013-06-17 22:15:00,63.1,26.2,30.07,SW,225,6.0,13.0,24,0.00,,---,0.00,VWS V14.00,2013-06-18 05:15:00,
2013-06-17 22:20:00,63.3,26.4,30.06,SSW,199,6.0,18.0,24,0.00,,---,0.00,VWS V14.00,2013-06-18 05:20:00,
2013-06-17 22:25:00,63.5,25.6,30.06,SSW,198,9.0,16.0,24,0.00,,---,0.00,VWS V14.00,2013-06-18 05:25:00,
2013-06-17 22:35:00,63.2,25.3,30.06,SSW,199,8.0,16.0,24,0.00,,---,0.00,VWS V14.00,2013-06-18 05:35:00,
2013-06-17 22:40:00,62.8,25.0,30.06,SSW,199,5.0,10.0,24,0.00,,---,0.00,VWS V14.00,2013-06-18 05:40:00,
2013-06-17 22:50:00,61.8,25.1,30.06,SSW,199,4.0,7.0,24,0.00,,---,0.00,VWS V14.00,2013-06-18 05:50:00,
2013-06-17 22:55:00,61.5,24.9,30.06,SSW,199,1.0,5.0,24,0.00,,---,0.00,VWS V14.00,2013-06-18 05:55:00,
2013-06-17 23:00:00,61.2,24.6,30.06,SSW,199,0.0,4.0,24,0.00,,---,0.00,VWS V14.00,2013-06-18 06:00:00,
2013-06-17 23:10:00,60.8,22.3,30.05,SSW,199,6.0,8.0,22,0.00,,---,0.00,VWS V14.00,2013-06-18 06:10:00,
2013-06-17 23:20:00,61.9,24.2,30.05,SSW,199,7.0,10.0,24,0.00,,---,0.00,VWS V14.00,2013-06-18 06:20:00,
2013-06-17 23:25:00,61.6,24.0,30.05,SSW,199,4.0,9.0,24,0.00,,---,0.00,VWS V14.00,2013-06-18 06:25:00,
2013-06-17 23:35:00,60.6,24.1,30.05,SSW,199,0.0,1.0,24,0.00,,---,0.00,VWS V14.00,2013-06-18 06:35:00,
2013-06-17 23:40:00,59.0,23.7,30.05,SSW,199,0.0,0.0,26,0.00,,---,0.00,VWS V14.00,2013-06-18 06:40:00,
2013-06-17 23:45:00,57.8,23.6,30.04,SSW,199,0.0,0.0,26,0.00,,---,0.00,VWS V14.00,2013-06-18 06:45:00,
2013-06-17 23:50:00,57.4,23.3,30.04,SSW,199,0.0,0.0,26,0.00,,---,0.00,VWS V14.00,2013-06-18 06:50:00,
2013-06-17 23:55:00,57.4,24.1,30.04,SSW,199,0.0,0.0,28,0.00,,---,0.00,VWS V14.00,2013-06-18 06:55:00,